{"data":{"norad_id":67785,"intl_designator":"2026-030X","name":"KUIPER-00226","alt_names":[],"object_type":"PAYLOAD","status":"ACTIVE","operator":null,"country":"US","launch_date":"2026-02-12","launch_site_code":"FRGUI","launch_vehicle":null,"mission":null,"orbit_class":"UNKNOWN","rcs_meters":null,"size_class":null,"mass_kg":null,"dimensions":null,"purposes":[],"wikipedia_slug":null,"has_3d_model":false,"image_url":null,"decayed_at":null,"tle_current":{"epoch":"2026-05-25T04:22:19.189920Z","epoch_age_seconds":62619,"freshness":"FRESH","line1":"1 67785U 26030X   26145.18216655 -.00004287  00000+0 -16206-3 0  9996","line2":"2 67785  51.8861 215.6323 0018726 341.6935  18.3370 15.23527668 16779","mean_motion":15.23527668,"eccentricity":0.0018726,"inclination_deg":51.8861,"raan_deg":215.6323,"arg_perigee_deg":341.6935,"mean_anomaly_deg":18.337,"bstar":-0.00016206,"rev_number":1677,"period_min":94.517482697925,"perigee_km":482.33909377458,"apogee_km":508.08115342188,"semimajor_km":6873.3471235982,"source":"CELESTRAK","updated_at":"2026-05-25T13:38:07.261535Z"}}}